Flag for U.S.A. Weather past 2 weeks in Olathe, Kansas, U.S.A.

Now
24 °F

Clear.


Feels Like: 20 °F
Forecast: 22 / 39 °F
Wind: 3 mph from Northeast

Location: Johnson County Executive Airport

Current Time: Dec 29, 2014 at 7:50:24 AM

Latest Report: Dec 29, 2014 at 6:53 AM


Visibility: 10 mi

Pressure: 30.26 "Hg

Humidity: 84%

Dew point: 20 °F

Location of OlatheLocation

Historic Weather in Olathe — Graph

°F

Olathe temperature yesterday

Maximum temperature yesterday: 38 °F (at 2:53 PM)
Minimum temperature yesterday: 16 °F (at 6:53 AM)
Average temperature yesterday: 27 °F

Past Weeks' High & Low Weather Summary

 TemperatureHumidityPressure
High62 °F (Dec 14, 1:53 PM)100% (Dec 14, 9:53 PM)30.38 "Hg (Dec 14, 9:53 PM)
Low16 °F (Dec 28, 6:53 AM)40% (Dec 25, 3:53 PM)29.43 "Hg (Dec 22, 2:53 PM)
Average37 °F83%30.00 "Hg
* Reported Dec 14 6:53 AM — Dec 29 6:53 AM, Olathe, Weather by CustomWeather, © 2014

Note: Actual official high and low records may vary slightly from our data, if they occured in-between our weather recording intervals... More about our weather records

Advertising

Olathe weather history for previous 24 hours

 ConditionsComfort  
Time TempWeatherWind HumidityBarometerVisibility
6:53 AM
Dec 29
24 °FClear.3 mph84%30.26 "Hg10 mi
5:53 AM24 °FClear.No wind84%30.24 "Hg10 mi
4:53 AM25 °FClear.5 mph78%30.22 "Hg10 mi
3:53 AM26 °FClear.3 mph74%30.21 "Hg10 mi
2:53 AM27 °FClear.No wind75%30.22 "Hg10 mi
1:53 AM28 °FClear.3 mph72%30.22 "Hg10 mi
12:53 AM28 °FClear.3 mph78%30.22 "Hg10 mi
11:53 PM
Dec 28
29 °FClear.No wind72%30.22 "Hg10 mi
10:53 PM28 °FClear.No wind72%30.21 "Hg10 mi
9:53 PM28 °FClear.5 mph66%30.20 "Hg10 mi
8:53 PM28 °FClear.3 mph64%30.20 "Hg10 mi
7:53 PM30 °FClear.3 mph64%30.20 "Hg10 mi
6:53 PM31 °FClear.No wind61%30.19 "Hg10 mi
5:53 PM33 °FClear.3 mph56%30.18 "Hg10 mi
4:53 PM35 °FSunny.5 mph54%30.17 "Hg10 mi
3:53 PM37 °FSunny.7 mph48%30.16 "Hg9 mi
2:53 PM38 °FSunny.7 mph46%30.16 "Hg10 mi
1:53 PM37 °FSunny.6 mph48%30.17 "Hg10 mi
12:53 PM34 °FSunny.5 mph56%30.19 "Hg10 mi
11:53 AM32 °FSunny.7 mph64%30.24 "Hg10 mi
10:53 AM30 °FSunny.7 mph69%30.27 "Hg10 mi
9:53 AM27 °FSunny.7 mph78%30.27 "Hg10 mi
8:53 AM21 °FSunny.7 mph96%30.28 "Hg8 mi
7:53 AM18 °FSunny.3 mph96%30.26 "Hg8 mi
Weather by CustomWeather, © 2014

See weather overviewHow to use our weather pages